This demonstration page uses our WeatherBlox Daily Observations layout. Learn more.

38.89511, -77.03637

Hourly Observations for October 20, 2018

Temp ( °F °C ) Dew Point ( °F °C ) Humidity (%) Winds ( mph kmh ) Pressure ( in mb ) Visibility ( mi km ) Precip ( " mm )
12:52 am 00:52 Cloudy with Light Rain 58 14.4 50 10 75 75 SSW 10 17 29.92 1013 10 16.0934 0.02 0.508
1:52 am 01:52 Cloudy 58 14.4 50 10 75 75 S 14 22 29.89 1012 10 16.0934 0.01 0.254
2:52 am 02:52 Cloudy with Light Rain 58 14.4 50 10 75 75 SSW 15 24 29.87 1011 10 16.0934 0 0.0254
3:52 am 03:52 Cloudy with Light Rain 57 13.9 52 11.1 83 83 SSW 12 19 29.85 1011 9 14.48406 0.02 0.508
4:52 am 04:52 Cloudy with Light Rain 57 13.9 53 11.7 87 87 SSW 8 13 29.82 1010 10 16.0934 0.02 0.508
5:52 am 05:52 Cloudy 57 13.9 53 11.7 87 87 S 7 11 29.81 1009 10 16.0934 0.01 0.254
6:52 am 06:52 Cloudy 57 13.9 54 12.2 90 90 SSW 7 11 29.8 1009 10 16.0934 0 0
7:52 am 07:52 Cloudy 57 13.9 53 11.7 87 87 SSW 9 15 29.8 1009 10 16.0934 0 0
8:26 am 08:26 Cloudy 57 13.9 53 11.7 87 87 VRB 5 7 29.83 1010 10 16.0934 0 0
8:36 am 08:36 Cloudy 58 14.4 54 12.2 87 87 WNW 5 7 29.83 1010 10 16.0934 0 0
8:52 am 08:52 Cloudy 58 14.4 53 11.7 84 84 VRB 3 6 29.82 1010 10 16.0934 0 0
9:08 am 09:08 Cloudy 58 14.4 53 11.7 84 84 WSW 7 11 29.83 1010 10 16.0934 0 0
9:52 am 09:52 Cloudy 58 14.4 54 12.2 87 87 SSW 6 9 29.83 1010 10 16.0934 0 0
10:52 am 10:52 Mostly Cloudy 59 15 54 12.2 83 83 SW 6 9 29.83 1010 10 16.0934 0 0
11:52 am 11:52 Sunny 61 16.1 54 12.2 78 78 Calm 29.8 1009 10 16.0934 0 0
12:52 pm 12:52 Cloudy 61 16.1 55 12.8 81 81 S 6 9 29.8 1009 10 16.0934 0 0
1:52 pm 13:52 Mostly Cloudy 67 19.4 52 11.1 59 59 W 5 7 29.75 1008 10 16.0934 0 0
2:52 pm 14:52 Mostly Cloudy 68 20 50 10 53 53 W 9 15 29.72 1007 10 16.0934 0 0
3:52 pm 15:52 Mostly Cloudy 67 19.4 48 8.9 51 51 W 7 11 29.69 1006 10 16.0934 0 0
4:52 pm 16:52 Mostly Cloudy 65 18.3 54 12.2 68 68 S 8 13 29.67 1005 10 16.0934 0 0
5:52 pm 17:52 Mostly Cloudy 65 18.3 54 12.2 68 68 W 5 7 29.67 1005 10 16.0934 0 0
6:52 pm 18:52 Mostly Cloudy 63 17.2 54 12.2 73 73 WSW 6 9 29.67 1005 10 16.0934 0 0
7:52 pm 19:52 Mostly Cloudy 63 17.2 51 10.6 65 65 WNW 5 7 29.68 1005 10 16.0934 0 0
8:52 pm 20:52 Partly Cloudy 60 15.6 45 7.2 58 58 WSW 7 11 29.68 1005 10 16.0934 0 0
9:52 pm 21:52 Partly Cloudy 61 16.1 39 3.9 44 44 WNW 12 19 29.7 1006 10 16.0934 0 0
10:36 pm 22:36 Cloudy with Light Rain 56 13.3 41 5 57 57 NW 23 37 29.77 1008 10 16.0934 0 0.0254
10:52 pm 22:52 Cloudy with Light Rain 56 13.3 40 4.4 55 55 NW 14 22 29.75 1008 10 16.0934 0 0.0254
11:52 pm 23:52 Cloudy 54 12.2 43 6.1 67 67 W 10 17 29.77 1008 10 16.0934 0.01 0.254

Powered by AerisWeather